www.pogodaiklimat.ru

АРХИВ ПОГОДЫ в Майами

Время (UTC), дата Ветер
(напр.,м/с)
 
Видим.   Явления Облачность Т
(С)
Тd
(С)
f
(%)
Тe
(С)
Тes
(С)
Комфортность

P
(гПа)

Po
(гПа)
Тmin
(С)
Tmax
(С)
R
(мм)
SD
(см)
19:53 20.11 СВ  7
{10} 
16 км    8/8 720 м  +26.1  +19.4  67  +32  +32  очень
душно 
1016.2  1015.8         
20:53 20.11 СВ  6
{9} 
16 км    8/8 870 м  +26.0  +19.0  65  +31  +31  очень
душно 
1016.3  1015.8         
21:53 20.11 СВ  16 км    8/8 870 м  +26.0  +19.0  65  +31  +31  очень
душно 
1016.4  1016.1         
22:53 20.11 СВ  16 км  слабый дождь  8/8 870 м  +23.9  +20.0  79  +29  +29  душно    1016.1         
23:53 20.11 СВ  4
{8} 
16 км    8/8 840 м  +24.4  +18.9  71  +29  +29  душно    1016.5  +23.9  +26.7  2.3   
00:53 21.11 СВ  16 км    8/8 1410 м  +24.4  +18.9  71  +29  +29  душно  1017.0  1016.5         
01:40 21.11 СВ  10 км  дождь, дымка  10/8 750 м
[средняя] 
+23.9  +20.0  79  +29  +29  душно    1016.8         
01:53 21.11 СВ  16 км  слабый дождь  10/10 750 м  +23.9  +20.6  82  +30  +30  очень
душно 
  1016.8         
02:02 21.11 СВ  16 км    8/8 750 м
[средняя] 
+24.0  +21.0  83  +30  +30  очень
душно 
  1016.8         
02:53 21.11 СВ  16 км    8/5 1080 м
[средняя] 
+24.4  +20.6  79  +30  +30  очень
душно 
1001.5  1016.8      1.0   
03:53 21.11 СВ  11 км  слабый дождь  10/8 660 м
[средняя] 
+23.9  +20.6  82  +30  +30  очень
душно 
  1016.8         
04:53 21.11 СВ  10 км  слабый дождь, дымка  10/10 660 м  +23.3  +21.1  87  +31  +31  очень
душно 
1016.4  1016.1         
05:23 21.11 ЮВ  5
{7} 
5 км  сильный дождь, дымка  10/10 600 м  +22.8  +21.7  94  +31  +31  очень
душно 
           
05:29 21.11 ЮВ  4 км  сильный дождь, дымка  10/10 330 м  +22.8  +21.7  94  +31  +31  очень
душно 
           
05:39 21.11 В  8 км  слабый дождь, дымка  10/10 330 м  +23.0  +22.0  94  +31  +31  очень
душно 
  1015.8         
05:53 21.11 СВ  5 км  дождь, дымка  10/10 330 м  +22.8  +21.7  94  +31  +31  очень
душно 
1015.8    +21.1  +24.4  8.1   
05:56 21.11 СВ  3 км  сильный дождь, дымка  10/10 180 м  +22.2  +21.7  97  +29  +29  очень
душно 
           
06:00 21.11 нст  2 км  сильный дождь, дымка  10/10 180 м  +22.2  +21.7  97  +29  +29  очень
душно 
           
06:07 21.11 С  14 км  слабый дождь  10/10 180 м  +22.0  +22.0  100  +29  +29  очень
душно 
  1015.1         
06:39 21.11 В  8 км  гроза со слабым дождем, дымка  10/10 330 м  +22.2  +21.1  93  +29  +29  очень
душно 
  1015.1         
06:53 21.11 В  16 км    10/10 420 м  +22.2  +21.7  97  +29  +29  очень
душно 
1015.4  1015.1         
07:19 21.11 штиль  16 км    10/10 600 м  +22.8  +21.7  94  +31  +31  очень
душно 
  1014.4         
07:44 21.11 штиль  16 км    8/8 600 м  +22.8  +21.7  94  +31  +31  очень
душно 
  1014.1         
07:53 21.11 штиль  16 км    8/8 600 м  +23.0  +22.0  94  +31  +31  очень
душно 
1014.5  1014.1         
08:53 21.11 штиль  16 км    8/8 600 м
[средняя] 
+22.8  +21.7  94  +31  +31  очень
душно 
  1013.7      9.1   
09:53 21.11 штиль  16 км    8/8 600 м  +22.2  +21.7  97  +29  +29  очень
душно 
1014.2  1013.7         
10:53 21.11 штиль  16 км    5/5 600 м  +22.2  +21.7  97  +29  +29  очень
душно 
1014.5  1014.1         
11:53 21.11 С  16 км    2/2 600 м  +22.2  +21.1  93  +29  +29  очень
душно 
1015.2  1014.8  +21.7  +23.3  9.1   
12:53 21.11 С  16 км    5/5 750 м  +23.3  +22.2  94  +32  +32  очень
душно 
1015.8  1015.4         
13:53 21.11 штиль  16 км    2/2 900 м  +25.6  +21.1  76  +32  +33  очень
душно 
1015.9  1015.4         
14:53 21.11 ЮВ  16 км    2/2 900 м
[верхняя] 
+27.0  +21.0  70  +34  +36  очень
душно 
1016.0  1015.4         
15:53 21.11 Ю  16 км    5/5 900 м
[средняя] 
+26.7  +20.0  67  +33  +35  очень
душно 
1015.9  1015.4         
16:53 21.11 Ю  16 км    5/5 900 м
[средняя] 
+28.0  +21.0  66  +35  +39  очень
душно 
1015.2  1014.8         
17:53 21.11 Ю  16 км    5/2 900 м
[средняя] 
+29.0  +20.0  58  +35  +40  очень
душно 
1013.9  1013.4  +22.2  +28.9     
18:53 21.11 ЮВ  4
{8} 
16 км    5/5 900 м
[средняя] 
+28.3  +20.6  63  +35  +38  очень
душно 
1013.3  1012.7         
19:53 21.11 СЗ  16 км    5/5 900 м  +26.7  +20.6  69  +33  +37  очень
душно 
1013.1  1012.7         
20:53 21.11 В  16 км    5/5 900 м
[верхняя] 
+27.0  +21.0  70  +34  +36  очень
душно 
1013.2  1012.7         
21:53 21.11 ЮВ  16 км    8/2 900 м
[средняя верхняя] 
+26.0  +21.0  74  +33  +34  очень
душно 
1013.1  1012.7         
22:53 21.11 ЮВ  16 км    5/2 750 м
[средняя верхняя] 
+25.6  +21.1  76  +32  +32  очень
душно 
1013.2  1012.7         
23:53 21.11 ЮВ  16 км    5/2 750 м
[средняя] 
+26.0  +22.0  79  +34  +34  очень
душно 
1013.3  1012.7  +25.6       
00:53 22.11 В  16 км    5/0 2250 м
[средняя верхняя] 
+25.6  +21.7  79  +33  +33  очень
душно 
1013.4  1013.1         
01:53 22.11 ЮВ  16 км    2/2 750 м
[средняя] 
+25.0  +21.7  82  +32  +32  очень
душно 
1013.7  1013.1         
02:53 22.11 штиль  16 км    2/2 750 м
[средняя] 
+25.0  +22.0  83  +32  +32  очень
душно 
1014.1  1013.7         
03:53 22.11 штиль  16 км    8/2 750 м
[средняя верхняя] 
+25.0  +22.0  83  +32  +32  очень
душно 
1014.2  1013.7         
04:53 22.11 штиль  16 км    8/2 750 м
[средняя] 
+24.0  +22.0  89  +31  +31  очень
душно 
1013.9  1013.4         
05:53 22.11 штиль  16 км    2/2 750 м
[средняя] 
+23.0  +21.0  89  +31  +31  очень
душно 
1013.3  1012.7  +22.2       
06:53 22.11 штиль  16 км    2/2 750 м  +21.7  +21.1  96  +28  +28  душно  1012.8  1012.4         
07:53 22.11 штиль  16 км    2/2 600 м  +21.7  +21.1  96  +28  +28  душно  1012.7  1012.4         

 

Местоположение метеостанции Miami International Airport: широта 25.7906 долгота -80.3164 высота над уровнем моря 3 м.

В архиве по умолчанию представлена погода в Майами за последние 1-2 суток. Обновление информации о фактической погоде в базе происходит ежечасно! Архивные данные за месяц целиком и за предыдущие месяцы Вы можете получить, выбрав интересующий диапазон дат из раскрывающегося списка и нажав кнопку "Ввод!".

Внимание! Архив погоды МЕТАР в базе сайта в настоящее время начинается c 1 января 2013 г. Нет смысла пытаться выбрать более раннюю дату.

Внимание! Время в таблицах - всемирное. Для получения местного времени необходимо прибавить поправку, которая в Майами равна -5 ч.

Ветер - указаны скорость ветра в м/с и направление, откуда дует ветер: С - северный, СВ - северо-восточный, В - восточный, ЮВ - юго-восточный, Ю - южный, ЮЗ - юго-западный, З - западный, СЗ - северо-западный.
Видимость - горизонтальная дальность видимости в метрах или километрах. При видимости от 1 до 10 км при отсутствии осадков обычно наблюдается дымка, при ухудшении видимости до 1 км и менее - туман. В сухую погоду видимость может ухудшаться дымом, пылью или мглою.
Атмосферные явления - указаны явления, наблюдавшиеся в указанный момент времени.
Облачность - указаны через наклонную черту верхняя и нижняя облачность в баллах и высота нижней границы облаков в метрах. Внимание: облачность, как и прочие метеорологические величины в США измеряются автоматическими метеостанциями. Указанные значения в баллах носят условный характер и показывают процент времени, в течение которого, в среднем, лазерный луч высотомера отражался от облаков обратно.
T - Температура воздуха - температура, измеренная на высоте 2 м над землей.
Td - Температура точки росы - температура, при понижении до которой содержащийся в воздухе водяной пар достигнет насыщения.
f - Относительная влажность воздуха - влажноcть воздуха, измеренная на высоте 2 м над землей.
Te - Эффективная температура - температура, которую ощущает одетый по сезону человек в тени. Характеристика душности погоды. При расчете учитывается влияние влажности воздуха и скорости ветра на теплоощущения человека.
Tes - Эффективная температура на солнце - температура, которую ощущает человек, с поправкой на солнечный нагрев. Характеристика знойности погоды. Зависит от высоты солнца над горизонтом, облачности и скорости ветра. Ночью, в пасмурную погоду, а также при ветре 12 м/с и более поправка равна нулю.
P - Атмосферное давление - приведенное к уровню моря атмосферное давление.
Po - Атмосферное давление - измеренное на уровне метеостанции атмосферное давление.
Tmin - Минимальная температура - минимум температуры воздуха на высоте 2 м над землей.
Tmax - Максимальная температура - максимум температуры воздуха на высоте 2 м над землей.
R - Количество осадков - Количество выпавших осадков за 3 или 6 часов, мм.
SD - Снежный покров - Высота снежного покрова, см.